VJC1806 VAAH-VVTS

Flight info

Callsign VJC1806
Flight time 4h 46m
Altitude 31000
Route BODAR1A BODAR N895 NNP L524 SANUG/N0466F330 L524 BKK R468 BOKAK/N0461F250 R468 SAPEN/K0854F250 SAPEN5G
Aircraft A21N/M-SDE3FGHIRWY/LB1

Departure

Time 2026-04-23 10:36
Airport Sardar Vallabh Patel International Airport (VAAH)

Arrival

Time 2026-04-23 15:22
Airport Tan Son Nhat International Airport (VVTS)
Time Latitude Longitude Altitude Speed Heading
2026-04-23 10:14 23.07370 72.62463 187 ft 0 kts 314°
2026-04-23 10:21 23.07367 72.62467 187 ft 2 kts 315°
2026-04-23 10:21 23.07356 72.62479 187 ft 2 kts 314°
2026-04-23 10:21 23.07346 72.62491 187 ft 2 kts 314°
2026-04-23 10:21 23.07335 72.62502 187 ft 2 kts 315°
2026-04-23 10:22 23.07324 72.62512 187 ft 2 kts 350°
2026-04-23 10:22 23.07309 72.62510 187 ft 2 kts 31°
2026-04-23 10:22 23.07298 72.62498 187 ft 2 kts 49°
2026-04-23 10:22 23.07289 72.62489 187 ft 0 kts 41°
2026-04-23 10:23 23.07287 72.62487 187 ft 0 kts 42°
2026-04-23 10:25 23.07290 72.62490 187 ft 1 kts 42°
2026-04-23 10:25 23.07302 72.62502 187 ft 3 kts 44°
2026-04-23 10:26 23.07322 72.62523 187 ft 4 kts 45°
2026-04-23 10:26 23.07351 72.62555 186 ft 6 kts 45°
2026-04-23 10:26 23.07386 72.62593 186 ft 7 kts 45°
2026-04-23 10:26 23.07426 72.62636 186 ft 8 kts 45°
2026-04-23 10:27 23.07466 72.62679 186 ft 8 kts 45°
2026-04-23 10:27 23.07506 72.62721 187 ft 7 kts 45°
2026-04-23 10:27 23.07535 72.62769 187 ft 7 kts 84°
2026-04-23 10:27 23.07508 72.62820 187 ft 8 kts 142°
2026-04-23 10:28 23.07462 72.62869 186 ft 9 kts 121°
2026-04-23 10:28 23.07475 72.62934 186 ft 10 kts 39°
2026-04-23 10:28 23.07526 72.62983 186 ft 10 kts 47°
2026-04-23 10:28 23.07576 72.63040 185 ft 10 kts 47°
2026-04-23 10:29 23.07627 72.63099 186 ft 10 kts 47°
2026-04-23 10:29 23.07664 72.63155 186 ft 8 kts 66°
2026-04-23 10:29 23.07680 72.63216 187 ft 8 kts 76°
2026-04-23 10:29 23.07693 72.63274 188 ft 7 kts 76°
2026-04-23 10:30 23.07707 72.63331 188 ft 7 kts 75°
2026-04-23 10:30 23.07719 72.63391 189 ft 8 kts 83°
2026-04-23 10:30 23.07737 72.63454 189 ft 9 kts 54°
2026-04-23 10:30 23.07785 72.63509 189 ft 11 kts 45°
2026-04-23 10:31 23.07851 72.63580 190 ft 14 kts 45°
2026-04-23 10:31 23.07931 72.63666 190 ft 17 kts 44°
2026-04-23 10:31 23.08024 72.63763 190 ft 18 kts 45°
2026-04-23 10:31 23.08115 72.63862 190 ft 18 kts 45°
2026-04-23 10:32 23.08204 72.63958 190 ft 17 kts 44°
2026-04-23 10:32 23.08292 72.64051 189 ft 17 kts 44°
2026-04-23 10:32 23.08379 72.64143 189 ft 17 kts 45°
2026-04-23 10:32 23.08464 72.64234 189 ft 17 kts 44°
2026-04-23 10:33 23.08552 72.64327 190 ft 17 kts 45°
2026-04-23 10:33 23.08640 72.64421 192 ft 17 kts 45°
2026-04-23 10:33 23.08726 72.64513 194 ft 16 kts 45°
2026-04-23 10:33 23.08770 72.64580 195 ft 9 kts 74°
2026-04-23 10:34 23.08799 72.64638 196 ft 6 kts 38°
2026-04-23 10:34 23.08833 72.64635 196 ft 5 kts 310°
2026-04-23 10:34 23.08822 72.64597 195 ft 6 kts 208°
2026-04-23 10:34 23.08798 72.64587 195 ft 3 kts 206°
2026-04-23 10:35 23.08787 72.64577 195 ft 0 kts 225°
2026-04-23 10:35 23.08769 72.64558 195 ft 10 kts 225°
2026-04-23 10:35 23.08563 72.64339 190 ft 73 kts 225°
2026-04-23 10:35 23.08055 72.63796 191 ft 129 kts 224°
2026-04-23 10:36 23.07294 72.62983 186 ft 175 kts 226°
2026-04-23 10:36 23.06416 72.61959 476 ft 187 kts 229°
2026-04-23 10:36 23.05488 72.61018 1005 ft 184 kts 209°
2026-04-23 10:36 23.04217 72.60794 1386 ft 191 kts 180°
2026-04-23 10:37 23.02870 72.60850 1735 ft 197 kts 182°
2026-04-23 10:37 23.01508 72.61146 2015 ft 207 kts 154°
2026-04-23 10:37 23.00379 72.62179 2188 ft 218 kts 134°
2026-04-23 10:37 22.99363 72.63451 2367 ft 227 kts 133°
2026-04-23 10:38 22.98293 72.64763 2543 ft 236 kts 134°
2026-04-23 10:38 22.97126 72.66102 2649 ft 251 kts 136°
2026-04-23 10:38 22.95871 72.67476 2846 ft 261 kts 137°
2026-04-23 10:38 22.94554 72.68890 3079 ft 271 kts 137°
2026-04-23 10:39 22.93175 72.70370 3309 ft 281 kts 137°
2026-04-23 10:39 22.91776 72.71867 3698 ft 284 kts 137°
2026-04-23 10:39 22.90371 72.73371 4161 ft 284 kts 137°
2026-04-23 10:39 22.88962 72.74880 4594 ft 286 kts 137°
2026-04-23 10:40 22.87671 72.76495 5004 ft 290 kts 122°
2026-04-23 10:40 22.86918 72.78534 5445 ft 293 kts 104°
2026-04-23 10:40 22.86522 72.80699 5912 ft 295 kts 101°
2026-04-23 10:40 22.86166 72.82887 6349 ft 297 kts 101°
2026-04-23 10:41 22.85800 72.85091 6785 ft 299 kts 102°
2026-04-23 10:41 22.85420 72.87307 7231 ft 301 kts 102°
2026-04-23 10:41 22.85028 72.89533 7687 ft 302 kts 102°
2026-04-23 10:41 22.84629 72.91768 8145 ft 304 kts 103°
2026-04-23 10:42 22.84224 72.94015 8601 ft 306 kts 103°
2026-04-23 10:42 22.83815 72.96272 9060 ft 307 kts 103°
2026-04-23 10:42 22.83403 72.98542 9500 ft 309 kts 103°
2026-04-23 10:42 22.82988 73.00822 9939 ft 310 kts 103°
2026-04-23 10:43 22.82564 73.03146 10176 ft 320 kts 103°
2026-04-23 10:43 22.82125 73.05549 10376 ft 331 kts 102°
2026-04-23 10:43 22.81673 73.08031 10569 ft 342 kts 102°
2026-04-23 10:43 22.81206 73.10592 10752 ft 352 kts 102°
2026-04-23 10:44 22.80723 73.13228 10933 ft 362 kts 102°
2026-04-23 10:44 22.80231 73.15924 11238 ft 368 kts 102°
2026-04-23 10:44 22.79734 73.18642 11661 ft 369 kts 102°
2026-04-23 10:44 22.79236 73.21369 12085 ft 370 kts 102°
2026-04-23 10:45 22.78736 73.24107 12488 ft 372 kts 102°
2026-04-23 10:45 22.78233 73.26858 12872 ft 374 kts 102°
2026-04-23 10:45 22.77726 73.29624 13272 ft 375 kts 102°
2026-04-23 10:45 22.77216 73.32400 13649 ft 377 kts 101°
2026-04-23 10:46 22.76705 73.35184 14048 ft 378 kts 101°
2026-04-23 10:46 22.76192 73.37978 14424 ft 380 kts 101°
2026-04-23 10:46 22.75677 73.40782 14796 ft 381 kts 101°
2026-04-23 10:46 22.75160 73.43595 15157 ft 382 kts 101°
2026-04-23 10:47 22.74639 73.46419 15510 ft 384 kts 101°
2026-04-23 10:47 22.74118 73.49252 15866 ft 385 kts 100°
2026-04-23 10:47 22.73594 73.52094 16210 ft 386 kts 100°
2026-04-23 10:47 22.73067 73.54946 16536 ft 388 kts 100°
2026-04-23 10:48 22.72537 73.57811 16840 ft 390 kts 100°
2026-04-23 10:48 22.72005 73.60691 17132 ft 392 kts 100°
2026-04-23 10:48 22.71470 73.63583 17455 ft 393 kts 100°
2026-04-23 10:48 22.70933 73.66484 17772 ft 395 kts 100°
2026-04-23 10:49 22.70393 73.69396 18076 ft 396 kts 100°
2026-04-23 10:49 22.69848 73.72328 18382 ft 398 kts 100°
2026-04-23 10:49 22.69301 73.75269 18693 ft 399 kts 100°
2026-04-23 10:49 22.68753 73.78210 19005 ft 400 kts 100°
2026-04-23 10:50 22.68204 73.81160 19303 ft 402 kts 100°
2026-04-23 10:50 22.67652 73.84122 19584 ft 403 kts 100°
2026-04-23 10:50 22.67096 73.87095 19879 ft 405 kts 100°
2026-04-23 10:50 22.66538 73.90079 20190 ft 405 kts 100°
2026-04-23 10:51 22.65978 73.93070 20486 ft 407 kts 100°
2026-04-23 10:51 22.65416 73.96072 20761 ft 408 kts 100°
2026-04-23 10:51 22.64850 73.99086 21041 ft 410 kts 100°
2026-04-23 10:51 22.64282 74.02107 21347 ft 410 kts 100°
2026-04-23 10:52 22.63715 74.05130 21640 ft 411 kts 100°
2026-04-23 10:52 22.63145 74.08161 21923 ft 413 kts 100°
2026-04-23 10:52 22.62574 74.11199 22219 ft 413 kts 100°
2026-04-23 10:52 22.62003 74.14230 22619 ft 411 kts 100°
2026-04-23 10:53 22.61433 74.17252 22944 ft 411 kts 100°
2026-04-23 10:53 22.60854 74.20283 23179 ft 414 kts 101°
2026-04-23 10:53 22.60144 74.23301 23419 ft 416 kts 104°
2026-04-23 10:53 22.59291 74.26289 23696 ft 417 kts 106°
2026-04-23 10:54 22.58408 74.29275 23968 ft 418 kts 106°
2026-04-23 10:54 22.57520 74.32268 24215 ft 420 kts 106°
2026-04-23 10:54 22.56630 74.35272 24444 ft 421 kts 106°
2026-04-23 10:54 22.55737 74.38285 24669 ft 422 kts 106°
2026-04-23 10:55 22.54841 74.41309 24898 ft 424 kts 106°
2026-04-23 10:55 22.53944 74.44338 25130 ft 425 kts 106°
2026-04-23 10:55 22.53043 74.47377 25341 ft 426 kts 106°
2026-04-23 10:55 22.52141 74.50423 25565 ft 427 kts 106°
2026-04-23 10:56 22.51236 74.53476 25771 ft 428 kts 106°
2026-04-23 10:56 22.50328 74.56538 25962 ft 429 kts 106°
2026-04-23 10:56 22.49416 74.59611 26148 ft 431 kts 106°
2026-04-23 10:56 22.48500 74.62691 26347 ft 432 kts 106°
2026-04-23 10:57 22.47582 74.65778 26552 ft 433 kts 106°
2026-04-23 10:57 22.46662 74.68870 26748 ft 433 kts 106°
2026-04-23 10:57 22.45742 74.71960 26917 ft 435 kts 106°
2026-04-23 10:57 22.44811 74.75081 27097 ft 436 kts 106°
2026-04-23 10:58 22.43884 74.78190 27336 ft 435 kts 106°
2026-04-23 10:58 22.42957 74.81293 27591 ft 435 kts 106°
2026-04-23 10:58 22.42032 74.84390 27845 ft 434 kts 106°
2026-04-23 10:58 22.41107 74.87483 28075 ft 434 kts 106°
2026-04-23 10:59 22.40182 74.90575 28303 ft 433 kts 106°
2026-04-23 10:59 22.39257 74.93663 28535 ft 433 kts 106°
2026-04-23 10:59 22.38334 74.96746 28787 ft 432 kts 106°
2026-04-23 10:59 22.37412 74.99821 29045 ft 431 kts 106°
2026-04-23 11:00 22.36492 75.02890 29269 ft 431 kts 106°
2026-04-23 11:00 22.35570 75.05961 29443 ft 431 kts 106°
2026-04-23 11:00 22.34644 75.09040 29591 ft 433 kts 106°
2026-04-23 11:00 22.33716 75.12128 29722 ft 434 kts 106°
2026-04-23 11:01 22.32784 75.15225 29868 ft 435 kts 106°
2026-04-23 11:01 22.31849 75.18327 30019 ft 436 kts 106°
2026-04-23 11:01 22.30912 75.21436 30157 ft 437 kts 106°
2026-04-23 11:01 22.29971 75.24554 30290 ft 438 kts 107°
2026-04-23 11:02 22.29028 75.27681 30418 ft 440 kts 107°
2026-04-23 11:02 22.28082 75.30814 30561 ft 440 kts 107°
2026-04-23 11:02 22.27132 75.33953 30705 ft 441 kts 107°
2026-04-23 11:02 22.26179 75.37099 30779 ft 443 kts 107°
2026-04-23 11:03 22.24259 75.43439 30785 ft 449 kts 107°
2026-04-23 11:03 22.22302 75.49889 30785 ft 456 kts 107°
2026-04-23 11:04 22.20312 75.56434 30783 ft 462 kts 107°
2026-04-23 11:04 22.18311 75.63012 30785 ft 463 kts 107°
2026-04-23 11:05 22.16305 75.69588 30784 ft 462 kts 107°
2026-04-23 11:05 22.14297 75.76170 30784 ft 462 kts 108°
2026-04-23 11:06 22.11291 75.86001 30789 ft 463 kts 108°
2026-04-23 11:07 22.09270 75.92602 30792 ft 464 kts 108°
2026-04-23 11:07 22.07243 75.99209 30799 ft 465 kts 108°
2026-04-23 11:08 22.05122 76.05770 30803 ft 466 kts 109°
2026-04-23 11:08 22.02937 76.12332 30800 ft 466 kts 110°
2026-04-23 11:09 22.00755 76.18906 30806 ft 466 kts 110°
2026-04-23 11:09 21.98579 76.25478 30801 ft 466 kts 110°
2026-04-23 11:10 21.96410 76.32030 30803 ft 467 kts 110°
2026-04-23 11:10 21.94229 76.38608 30807 ft 467 kts 110°
2026-04-23 11:11 21.92044 76.45197 30799 ft 468 kts 110°
2026-04-23 11:11 21.89864 76.51758 30802 ft 468 kts 110°
2026-04-23 11:12 21.87671 76.58330 30796 ft 468 kts 110°
2026-04-23 11:12 21.85455 76.64946 30802 ft 468 kts 110°
2026-04-23 11:13 21.83251 76.71534 30802 ft 469 kts 111°
2026-04-23 11:13 21.81049 76.78106 30801 ft 469 kts 111°
2026-04-23 11:14 21.78852 76.84660 30815 ft 468 kts 111°
2026-04-23 11:14 21.76641 76.91246 30821 ft 469 kts 111°
2026-04-23 11:15 21.74426 76.97838 30815 ft 470 kts 111°
2026-04-23 11:15 21.72202 77.04447 30826 ft 471 kts 112°
2026-04-23 11:16 21.69978 77.11036 30833 ft 471 kts 111°
2026-04-23 11:16 21.67735 77.17681 30821 ft 472 kts 112°
2026-04-23 11:17 21.65490 77.24328 30817 ft 473 kts 112°
2026-04-23 11:17 21.63257 77.30924 30843 ft 473 kts 112°
2026-04-23 11:18 21.61001 77.37583 30872 ft 475 kts 112°
2026-04-23 11:18 21.58805 77.44299 30900 ft 478 kts 111°
2026-04-23 11:19 21.56648 77.51063 30934 ft 482 kts 111°
2026-04-23 11:19 21.54479 77.57842 30953 ft 481 kts 111°
2026-04-23 11:20 21.52302 77.64611 30949 ft 481 kts 112°
2026-04-23 11:20 21.50138 77.71384 30942 ft 482 kts 111°
2026-04-23 11:21 21.48032 77.78205 30918 ft 483 kts 111°
2026-04-23 11:21 21.45922 77.85055 30910 ft 484 kts 111°
2026-04-23 11:22 21.43801 77.91919 30868 ft 485 kts 111°
2026-04-23 11:22 21.41675 77.98777 30874 ft 487 kts 111°
2026-04-23 11:23 21.39536 78.05664 30847 ft 486 kts 112°
2026-04-23 11:23 21.37404 78.12528 30843 ft 489 kts 112°
2026-04-23 11:24 21.35247 78.19442 30842 ft 489 kts 112°
2026-04-23 11:24 21.33105 78.26313 30826 ft 488 kts 112°
2026-04-23 11:25 21.30947 78.33219 30839 ft 489 kts 112°
2026-04-23 11:25 21.28787 78.40126 30826 ft 490 kts 112°
2026-04-23 11:26 21.26617 78.47051 30849 ft 491 kts 112°
2026-04-23 11:26 21.24453 78.53953 30841 ft 492 kts 112°
2026-04-23 11:27 21.22261 78.60921 30840 ft 493 kts 112°
2026-04-23 11:27 21.20072 78.67885 30831 ft 493 kts 113°
2026-04-23 11:28 21.17892 78.74799 30816 ft 492 kts 113°
2026-04-23 11:28 21.15697 78.81758 30809 ft 493 kts 113°
2026-04-23 11:29 21.13510 78.88699 30796 ft 494 kts 113°
2026-04-23 11:29 21.11323 78.95647 30783 ft 494 kts 113°
2026-04-23 11:30 21.09124 79.02624 30779 ft 493 kts 113°
2026-04-23 11:30 21.06996 79.09569 30760 ft 494 kts 111°
2026-04-23 11:31 21.05006 79.16626 30767 ft 496 kts 111°
2026-04-23 11:31 21.03022 79.23665 30762 ft 496 kts 111°
2026-04-23 11:32 21.01019 79.30720 30762 ft 498 kts 111°
2026-04-23 11:32 20.99012 79.37750 30762 ft 497 kts 111°
2026-04-23 11:33 20.96987 79.44833 30760 ft 498 kts 111°
2026-04-23 11:33 20.94957 79.51924 30765 ft 498 kts 111°
2026-04-23 11:34 20.92921 79.59021 30770 ft 498 kts 111°
2026-04-23 11:34 20.90899 79.66062 30774 ft 498 kts 112°
2026-04-23 11:35 20.88866 79.73119 30771 ft 499 kts 112°
2026-04-23 11:35 20.86822 79.80208 30774 ft 499 kts 112°
2026-04-23 11:36 20.84768 79.87311 30776 ft 501 kts 112°
2026-04-23 11:36 20.82720 79.94394 30769 ft 499 kts 112°
2026-04-23 11:37 20.80671 80.01457 30770 ft 500 kts 112°
2026-04-23 11:37 20.78609 80.08559 30771 ft 500 kts 112°
2026-04-23 11:38 20.76554 80.15622 30777 ft 500 kts 112°
2026-04-23 11:38 20.74499 80.22678 30781 ft 500 kts 112°
2026-04-23 11:39 20.72424 80.29792 30778 ft 500 kts 112°
2026-04-23 11:39 20.70361 80.36850 30783 ft 500 kts 112°
2026-04-23 11:40 20.68288 80.43931 30779 ft 501 kts 112°
2026-04-23 11:40 20.66202 80.51038 30789 ft 502 kts 112°
2026-04-23 11:41 20.64118 80.58133 30784 ft 503 kts 112°
2026-04-23 11:41 20.62038 80.65205 30792 ft 503 kts 113°
2026-04-23 11:42 20.59944 80.72312 30780 ft 501 kts 113°
2026-04-23 11:42 20.57848 80.79408 30790 ft 502 kts 113°
2026-04-23 11:43 20.55761 80.86468 30786 ft 502 kts 113°
2026-04-23 11:43 20.53656 80.93578 30798 ft 502 kts 112°
2026-04-23 11:44 20.51561 81.00647 30812 ft 503 kts 113°
2026-04-23 11:44 20.49452 81.07751 30816 ft 503 kts 113°
2026-04-23 11:45 20.47333 81.14872 30810 ft 503 kts 113°
2026-04-23 11:45 20.45224 81.21960 30818 ft 504 kts 113°
2026-04-23 11:46 20.43127 81.29060 30816 ft 504 kts 112°
2026-04-23 11:46 20.41066 81.36198 30812 ft 504 kts 112°
2026-04-23 11:47 20.39020 81.43291 30816 ft 505 kts 112°
2026-04-23 11:47 20.36954 81.50436 30809 ft 504 kts 112°
2026-04-23 11:48 20.34884 81.57569 30820 ft 505 kts 112°
2026-04-23 11:48 20.32812 81.64694 30818 ft 505 kts 112°
2026-04-23 11:49 20.30724 81.71874 30815 ft 506 kts 113°
2026-04-23 11:49 20.28654 81.78979 30826 ft 506 kts 112°
2026-04-23 11:50 20.26567 81.86135 30822 ft 505 kts 112°
2026-04-23 11:50 20.24488 81.93256 30827 ft 506 kts 112°
2026-04-23 11:51 20.22347 82.00396 30832 ft 505 kts 115°
2026-04-23 11:51 20.19891 82.07326 30839 ft 503 kts 116°
2026-04-23 11:52 20.17383 82.14271 30847 ft 504 kts 116°
2026-04-23 11:52 20.14876 82.21233 30856 ft 504 kts 116°
2026-04-23 11:53 20.12377 82.28180 30855 ft 505 kts 116°
2026-04-23 11:53 20.09872 82.35139 30848 ft 505 kts 116°
2026-04-23 11:54 20.07354 82.42126 30829 ft 505 kts 116°
2026-04-23 11:54 20.04844 82.49083 30811 ft 505 kts 116°
2026-04-23 11:55 20.02328 82.56046 30800 ft 505 kts 117°
2026-04-23 11:55 19.99809 82.63007 30791 ft 506 kts 116°
2026-04-23 11:56 19.97275 82.70007 30788 ft 507 kts 117°
2026-04-23 11:56 19.94742 82.76987 30781 ft 508 kts 117°
2026-04-23 11:57 19.92197 82.84001 30786 ft 508 kts 117°
2026-04-23 11:57 19.89651 82.91004 30779 ft 509 kts 117°
2026-04-23 11:58 19.87132 82.98019 30779 ft 509 kts 117°
2026-04-23 11:58 19.84649 83.04981 30790 ft 508 kts 116°
2026-04-23 11:59 19.82134 83.12015 30812 ft 508 kts 117°
2026-04-23 11:59 19.79632 83.19003 30830 ft 508 kts 117°
2026-04-23 12:00 19.77124 83.25995 30855 ft 508 kts 117°
2026-04-23 12:00 19.74607 83.32996 30865 ft 508 kts 116°
2026-04-23 12:01 19.72093 83.39991 30851 ft 508 kts 116°
2026-04-23 12:01 19.69580 83.46970 30830 ft 509 kts 116°
2026-04-23 12:02 19.67061 83.53952 30812 ft 509 kts 116°
2026-04-23 12:02 19.64541 83.60941 30812 ft 508 kts 116°
2026-04-23 12:03 19.62012 83.67935 30815 ft 508 kts 117°
2026-04-23 12:03 19.59494 83.74891 30812 ft 508 kts 117°
2026-04-23 12:04 19.56945 83.81915 30817 ft 509 kts 117°
2026-04-23 12:04 19.54410 83.88899 30819 ft 509 kts 117°
2026-04-23 12:05 19.51879 83.95867 30819 ft 507 kts 117°
2026-04-23 12:05 19.49337 84.02851 30819 ft 508 kts 117°
2026-04-23 12:06 19.46798 84.09825 30836 ft 508 kts 116°
2026-04-23 12:06 19.42998 84.20261 30873 ft 509 kts 115°
2026-04-23 12:07 19.40805 84.27346 30887 ft 511 kts 112°
2026-04-23 12:07 19.38720 84.34553 30867 ft 511 kts 111°
2026-04-23 12:08 19.36647 84.41721 30831 ft 511 kts 111°
2026-04-23 12:08 19.34565 84.48878 30793 ft 511 kts 112°
2026-04-23 12:09 19.32472 84.56046 30756 ft 510 kts 111°
2026-04-23 12:09 19.30384 84.63187 30743 ft 509 kts 111°
2026-04-23 12:10 19.28292 84.70333 30730 ft 509 kts 112°
2026-04-23 12:10 19.26199 84.77459 30724 ft 509 kts 112°
2026-04-23 12:11 19.24096 84.84624 30722 ft 508 kts 112°
2026-04-23 12:11 19.21997 84.91761 30720 ft 507 kts 111°
2026-04-23 12:12 19.19911 84.98843 30717 ft 508 kts 111°
2026-04-23 12:12 19.17802 85.05990 30721 ft 509 kts 111°
2026-04-23 12:13 19.15688 85.13147 30721 ft 508 kts 111°
2026-04-23 12:13 19.13590 85.20250 30722 ft 509 kts 111°
2026-04-23 12:14 19.11469 85.27389 30719 ft 508 kts 112°
2026-04-23 12:14 19.09204 85.34439 30710 ft 507 kts 113°
2026-04-23 12:15 19.06908 85.41467 30707 ft 507 kts 113°
2026-04-23 12:15 19.04627 85.48492 30708 ft 506 kts 113°
2026-04-23 12:16 19.02359 85.55498 30712 ft 506 kts 113°
2026-04-23 12:16 19.00083 85.62521 30716 ft 505 kts 113°
2026-04-23 12:17 18.97819 85.69511 30717 ft 504 kts 113°
2026-04-23 12:17 18.95545 85.76516 30719 ft 505 kts 113°
2026-04-23 12:18 18.93278 85.83494 30724 ft 505 kts 113°
2026-04-23 12:18 18.91006 85.90530 30725 ft 505 kts 112°
2026-04-23 12:19 18.88771 85.97553 30726 ft 506 kts 112°
2026-04-23 12:19 18.86539 86.04565 30725 ft 506 kts 112°
2026-04-23 12:20 18.84299 86.11595 30728 ft 505 kts 112°
2026-04-23 12:20 18.82070 86.18579 30727 ft 505 kts 112°
2026-04-23 12:21 18.79822 86.25607 30732 ft 504 kts 112°
2026-04-23 12:21 18.77580 86.32605 30733 ft 504 kts 112°
2026-04-23 12:22 18.75344 86.39579 30735 ft 504 kts 112°
2026-04-23 12:22 18.73099 86.46571 30734 ft 503 kts 112°
2026-04-23 12:23 18.70856 86.53544 30739 ft 503 kts 112°
2026-04-23 12:23 18.68613 86.60503 30740 ft 503 kts 112°
2026-04-23 12:24 18.66355 86.67505 30746 ft 503 kts 112°
2026-04-23 12:24 18.64105 86.74476 30751 ft 503 kts 113°
2026-04-23 12:25 18.61852 86.81442 30759 ft 504 kts 113°
2026-04-23 12:25 18.59598 86.88395 30766 ft 503 kts 112°
2026-04-23 12:26 18.57334 86.95377 30771 ft 503 kts 112°
2026-04-23 12:26 18.55071 87.02345 30770 ft 503 kts 112°
2026-04-23 12:27 18.52813 87.09290 30764 ft 503 kts 112°
2026-04-23 12:27 18.50542 87.16261 30762 ft 503 kts 112°
2026-04-23 12:28 18.48274 87.23214 30762 ft 502 kts 112°
2026-04-23 12:28 18.46016 87.30133 30760 ft 502 kts 112°
2026-04-23 12:29 18.43732 87.37112 30762 ft 502 kts 112°
2026-04-23 12:29 18.41473 87.44012 30762 ft 502 kts 112°
2026-04-23 12:30 18.39197 87.50952 30761 ft 502 kts 112°
2026-04-23 12:30 18.36914 87.57911 30766 ft 502 kts 112°
2026-04-23 12:31 18.34648 87.64810 30771 ft 502 kts 112°
2026-04-23 12:31 18.32369 87.71741 30772 ft 501 kts 112°
2026-04-23 12:32 18.30084 87.78681 30775 ft 501 kts 112°
2026-04-23 12:32 18.27805 87.85608 30994 ft 502 kts 112°
2026-04-23 12:33 18.26684 87.89077 31200 ft 501 kts 112°
2026-04-23 12:33 18.25573 87.92529 31397 ft 500 kts 112°
2026-04-23 12:33 18.24460 87.95998 31587 ft 500 kts 112°
2026-04-23 12:33 18.23337 87.99490 31754 ft 499 kts 112°
2026-04-23 12:34 18.22229 88.02934 31913 ft 499 kts 112°
2026-04-23 12:34 18.21119 88.06378 32067 ft 499 kts 112°
2026-04-23 12:34 18.20001 88.09847 32223 ft 499 kts 112°
2026-04-23 12:34 18.18892 88.13284 32398 ft 498 kts 112°
2026-04-23 12:35 18.17780 88.16726 32571 ft 498 kts 112°
2026-04-23 12:35 18.16678 88.20136 32737 ft 498 kts 112°
2026-04-23 12:35 18.14445 88.27035 32782 ft 497 kts 112°
2026-04-23 12:36 18.12228 88.33876 32785 ft 497 kts 112°
2026-04-23 12:36 18.10004 88.40728 32781 ft 497 kts 112°
2026-04-23 12:37 18.07778 88.47584 32782 ft 496 kts 112°
2026-04-23 12:37 18.05540 88.54461 32782 ft 497 kts 112°
2026-04-23 12:38 18.03310 88.61312 32787 ft 497 kts 112°
2026-04-23 12:38 18.01070 88.68192 32783 ft 497 kts 113°
2026-04-23 12:39 17.98830 88.75060 32788 ft 498 kts 113°
2026-04-23 12:39 17.96591 88.81918 32793 ft 497 kts 113°
2026-04-23 12:40 17.94366 88.88773 32799 ft 497 kts 112°
2026-04-23 12:40 17.92171 88.95642 32801 ft 497 kts 112°
2026-04-23 12:41 17.89988 89.02481 32805 ft 496 kts 112°
2026-04-23 12:41 17.87801 89.09323 32807 ft 495 kts 112°
2026-04-23 12:42 17.85612 89.16161 32807 ft 496 kts 112°
2026-04-23 12:42 17.83417 89.23010 32807 ft 495 kts 112°
2026-04-23 12:43 17.81219 89.29854 32808 ft 494 kts 112°
2026-04-23 12:43 17.79037 89.36641 32807 ft 494 kts 112°
2026-04-23 12:44 17.76840 89.43465 32804 ft 494 kts 112°
2026-04-23 12:44 17.74643 89.50275 32799 ft 494 kts 112°
2026-04-23 12:45 17.72436 89.57108 32791 ft 493 kts 112°
2026-04-23 12:45 17.70244 89.63892 32790 ft 493 kts 112°
2026-04-23 12:46 17.68044 89.70691 32790 ft 493 kts 112°
2026-04-23 12:46 17.65830 89.77522 32792 ft 493 kts 112°
2026-04-23 12:47 17.63639 89.84274 32794 ft 493 kts 112°
2026-04-23 12:47 17.61439 89.91048 32795 ft 493 kts 112°
2026-04-23 12:48 17.59224 89.97855 32795 ft 493 kts 112°
2026-04-23 12:48 17.57018 90.04627 32796 ft 491 kts 112°
2026-04-23 12:49 17.54811 90.11391 32798 ft 490 kts 112°
2026-04-23 12:49 17.52612 90.18133 32806 ft 490 kts 112°
2026-04-23 12:50 17.50397 90.24908 32810 ft 490 kts 112°
2026-04-23 12:50 17.48203 90.31610 32806 ft 490 kts 112°
2026-04-23 12:51 17.45989 90.38370 32811 ft 489 kts 111°
2026-04-23 12:51 17.43784 90.45100 32811 ft 489 kts 111°
2026-04-23 12:52 17.41571 90.51841 32809 ft 489 kts 111°
2026-04-23 12:52 17.39327 90.58519 32810 ft 489 kts 112°
2026-04-23 12:53 17.36988 90.65194 32812 ft 489 kts 113°
2026-04-23 12:53 17.34660 90.71849 32808 ft 489 kts 113°
2026-04-23 12:54 17.32328 90.78538 32809 ft 489 kts 113°
2026-04-23 12:54 17.29997 90.85223 32813 ft 488 kts 113°
2026-04-23 12:55 17.27690 90.91837 32811 ft 487 kts 113°
2026-04-23 12:55 17.25362 90.98503 32810 ft 487 kts 113°
2026-04-23 12:56 17.23049 91.05116 32807 ft 486 kts 112°
2026-04-23 12:56 17.20717 91.11774 32807 ft 487 kts 112°
2026-04-23 12:57 17.18391 91.18413 32810 ft 487 kts 112°
2026-04-23 12:57 17.16068 91.25034 32815 ft 487 kts 112°
2026-04-23 12:58 17.13726 91.31700 32818 ft 487 kts 112°
2026-04-23 12:58 17.11395 91.38331 32818 ft 486 kts 112°
2026-04-23 12:59 17.09075 91.44916 32816 ft 486 kts 112°
2026-04-23 12:59 17.06731 91.51566 32816 ft 486 kts 112°
2026-04-23 13:00 17.04399 91.58174 32815 ft 486 kts 112°
2026-04-23 13:00 17.02062 91.64786 32810 ft 486 kts 112°
2026-04-23 13:01 16.99721 91.71410 32808 ft 485 kts 112°
2026-04-23 13:01 16.97393 91.77985 32808 ft 485 kts 113°
2026-04-23 13:02 16.95052 91.84592 32804 ft 485 kts 112°
2026-04-23 13:02 16.92711 91.91201 32807 ft 485 kts 112°
2026-04-23 13:03 16.90370 91.97793 32805 ft 485 kts 112°
2026-04-23 13:03 16.88029 92.04416 32802 ft 486 kts 112°
2026-04-23 13:04 16.85728 92.10996 32798 ft 486 kts 112°
2026-04-23 13:04 16.83420 92.17598 32802 ft 485 kts 112°
2026-04-23 13:05 16.81103 92.24219 32802 ft 485 kts 112°
2026-04-23 13:05 16.78794 92.30811 32804 ft 485 kts 112°
2026-04-23 13:06 16.75310 92.40743 32805 ft 485 kts 112°
2026-04-23 13:07 16.72996 92.47329 32802 ft 486 kts 112°
2026-04-23 13:07 16.70674 92.53933 32802 ft 486 kts 112°
2026-04-23 13:08 16.68353 92.60523 32808 ft 486 kts 112°
2026-04-23 13:08 16.66016 92.67153 32807 ft 486 kts 112°
2026-04-23 13:09 16.63685 92.73756 32804 ft 485 kts 112°
2026-04-23 13:09 16.61367 92.80317 32809 ft 485 kts 112°
2026-04-23 13:10 16.59034 92.86909 32804 ft 485 kts 112°
2026-04-23 13:10 16.56700 92.93501 32804 ft 485 kts 112°
2026-04-23 13:11 16.54368 93.00078 32804 ft 485 kts 112°
2026-04-23 13:11 16.52041 93.06638 32807 ft 485 kts 112°
2026-04-23 13:12 16.49702 93.13220 32801 ft 486 kts 112°
2026-04-23 13:12 16.47352 93.19827 32804 ft 485 kts 112°
2026-04-23 13:13 16.45011 93.26401 32803 ft 485 kts 112°
2026-04-23 13:13 16.42661 93.32993 32804 ft 485 kts 112°
2026-04-23 13:14 16.40328 93.39529 32803 ft 484 kts 112°
2026-04-23 13:14 16.37981 93.46094 32801 ft 485 kts 112°
2026-04-23 13:15 16.35613 93.52715 32801 ft 485 kts 112°
2026-04-23 13:15 16.33272 93.59256 32800 ft 485 kts 112°
2026-04-23 13:16 16.30915 93.65831 32804 ft 485 kts 112°
2026-04-23 13:16 16.28560 93.72398 32807 ft 484 kts 112°
2026-04-23 13:17 16.26209 93.78941 32805 ft 484 kts 112°
2026-04-23 13:17 16.23857 93.85480 32804 ft 484 kts 112°
2026-04-23 13:18 16.21508 93.92009 32806 ft 485 kts 112°
2026-04-23 13:18 16.19133 93.98598 32806 ft 485 kts 112°
2026-04-23 13:19 16.16778 94.05128 32804 ft 485 kts 112°
2026-04-23 13:19 16.14407 94.11708 32807 ft 485 kts 112°
2026-04-23 13:20 16.12050 94.18235 32804 ft 484 kts 112°
2026-04-23 13:20 16.09652 94.24754 32807 ft 484 kts 113°
2026-04-23 13:21 16.07172 94.31270 32804 ft 484 kts 113°
2026-04-23 13:21 16.04704 94.37756 32806 ft 484 kts 113°
2026-04-23 13:22 16.02235 94.44264 32802 ft 485 kts 113°
2026-04-23 13:22 15.99767 94.50770 32799 ft 485 kts 113°
2026-04-23 13:23 15.97301 94.57271 32797 ft 485 kts 113°
2026-04-23 13:23 15.94833 94.63769 32794 ft 485 kts 113°
2026-04-23 13:24 15.92343 94.70320 32792 ft 485 kts 113°
2026-04-23 13:24 15.89885 94.76783 32785 ft 485 kts 113°
2026-04-23 13:25 15.87408 94.83286 32779 ft 485 kts 113°
2026-04-23 13:25 15.84919 94.89812 32780 ft 485 kts 113°
2026-04-23 13:26 15.82439 94.96309 32788 ft 484 kts 113°
2026-04-23 13:26 15.79956 95.02805 32792 ft 484 kts 113°
2026-04-23 13:27 15.77484 95.09269 32798 ft 484 kts 113°
2026-04-23 13:27 15.75001 95.15756 32797 ft 485 kts 113°
2026-04-23 13:28 15.72508 95.22262 32793 ft 484 kts 113°
2026-04-23 13:28 15.70021 95.28742 32794 ft 484 kts 113°
2026-04-23 13:29 15.67545 95.35189 32793 ft 484 kts 113°
2026-04-23 13:29 15.65048 95.41687 32793 ft 484 kts 113°
2026-04-23 13:30 15.62554 95.48167 32793 ft 485 kts 113°
2026-04-23 13:30 15.60049 95.54671 32796 ft 484 kts 113°
2026-04-23 13:31 15.57560 95.61125 32801 ft 483 kts 113°
2026-04-23 13:31 15.55078 95.67556 32797 ft 482 kts 113°
2026-04-23 13:32 15.52585 95.74010 32795 ft 482 kts 113°
2026-04-23 13:32 15.50098 95.80439 32793 ft 482 kts 113°
2026-04-23 13:33 15.47602 95.86886 32793 ft 482 kts 113°
2026-04-23 13:33 15.45113 95.93308 32796 ft 481 kts 113°
2026-04-23 13:34 15.42625 95.99723 32786 ft 482 kts 113°
2026-04-23 13:34 15.40137 96.06132 32792 ft 480 kts 113°
2026-04-23 13:35 15.37638 96.12564 32794 ft 479 kts 113°
2026-04-23 13:35 15.35145 96.18971 32791 ft 479 kts 113°
2026-04-23 13:36 15.32657 96.25362 32792 ft 479 kts 113°
2026-04-23 13:36 15.30185 96.31702 32792 ft 479 kts 113°
2026-04-23 13:37 15.27690 96.38097 32794 ft 479 kts 113°
2026-04-23 13:37 15.25198 96.44480 32795 ft 478 kts 113°
2026-04-23 13:38 15.22710 96.50845 32794 ft 477 kts 113°
2026-04-23 13:38 15.20215 96.57221 32796 ft 476 kts 113°
2026-04-23 13:39 15.17732 96.63560 32797 ft 475 kts 113°
2026-04-23 13:39 15.15244 96.69907 32796 ft 476 kts 114°
2026-04-23 13:40 15.12760 96.76238 32792 ft 476 kts 114°
2026-04-23 13:40 15.10276 96.82561 32788 ft 475 kts 114°
2026-04-23 13:41 15.07784 96.88899 32789 ft 474 kts 114°
2026-04-23 13:41 15.05314 96.95177 32787 ft 474 kts 114°
2026-04-23 13:42 15.02832 97.01480 32788 ft 474 kts 114°
2026-04-23 13:42 15.00343 97.07793 32806 ft 473 kts 114°
2026-04-23 13:43 14.97862 97.14082 32806 ft 473 kts 114°
2026-04-23 13:43 14.95379 97.20368 32817 ft 474 kts 114°
2026-04-23 13:44 14.92882 97.26685 32814 ft 474 kts 114°
2026-04-23 13:44 14.90410 97.32934 32820 ft 473 kts 113°
2026-04-23 13:45 14.88329 97.38189 32820 ft 473 kts 113°
2026-04-23 13:45 14.85424 97.45520 32825 ft 473 kts 113°
2026-04-23 13:46 14.82933 97.51799 32821 ft 473 kts 113°
2026-04-23 13:46 14.80448 97.58061 32817 ft 473 kts 113°
2026-04-23 13:47 14.77941 97.64372 32821 ft 473 kts 113°
2026-04-23 13:47 14.75453 97.70627 32824 ft 473 kts 113°
2026-04-23 13:48 14.72963 97.76891 32836 ft 473 kts 113°
2026-04-23 13:48 14.70455 97.83192 32832 ft 472 kts 113°
2026-04-23 13:49 14.67974 97.89421 32828 ft 472 kts 113°
2026-04-23 13:49 14.65468 97.95670 32827 ft 472 kts 113°
2026-04-23 13:50 14.62937 98.01971 32831 ft 473 kts 113°
2026-04-23 13:50 14.60441 98.08198 32842 ft 472 kts 113°
2026-04-23 13:51 14.57922 98.14477 32856 ft 473 kts 113°
2026-04-23 13:51 14.55411 98.20736 32867 ft 472 kts 113°
2026-04-23 13:52 14.52897 98.26996 32878 ft 472 kts 113°
2026-04-23 13:52 14.50391 98.33231 32898 ft 472 kts 113°
2026-04-23 13:53 14.47885 98.39471 32917 ft 472 kts 113°
2026-04-23 13:53 14.45366 98.45737 32931 ft 472 kts 113°
2026-04-23 13:54 14.42859 98.51962 32938 ft 472 kts 112°
2026-04-23 13:54 14.40689 98.58366 32928 ft 473 kts 106°
2026-04-23 13:55 14.39018 98.64906 32920 ft 474 kts 104°
2026-04-23 13:55 14.37382 98.71498 32912 ft 473 kts 104°
2026-04-23 13:56 14.35773 98.77938 32907 ft 473 kts 104°
2026-04-23 13:56 14.34130 98.84492 32898 ft 472 kts 105°
2026-04-23 13:57 14.32491 98.91018 32876 ft 472 kts 104°
2026-04-23 13:57 14.30841 98.97568 32859 ft 472 kts 104°
2026-04-23 13:58 14.29183 99.04111 32846 ft 473 kts 104°
2026-04-23 13:58 14.27520 99.10667 32847 ft 472 kts 104°
2026-04-23 13:59 14.25874 99.17168 32851 ft 471 kts 104°
2026-04-23 13:59 14.24225 99.23682 32845 ft 471 kts 104°
2026-04-23 14:00 14.22850 99.29108 32843 ft 471 kts 104°
2026-04-23 14:00 14.20922 99.36704 32836 ft 470 kts 104°
2026-04-23 14:01 14.19262 99.43251 32827 ft 470 kts 104°
2026-04-23 14:01 14.17619 99.49718 32822 ft 468 kts 104°
2026-04-23 14:02 14.15967 99.56177 32813 ft 466 kts 105°
2026-04-23 14:02 14.14318 99.62608 32811 ft 463 kts 105°
2026-04-23 14:03 14.12691 99.68957 32807 ft 461 kts 105°
2026-04-23 14:03 14.11057 99.75317 32799 ft 461 kts 104°
2026-04-23 14:04 14.09419 99.81716 32796 ft 463 kts 104°
2026-04-23 14:04 14.07781 99.88121 32796 ft 463 kts 104°
2026-04-23 14:05 14.06141 99.94516 32793 ft 463 kts 104°
2026-04-23 14:05 14.04509 100.00872 32789 ft 462 kts 105°
2026-04-23 14:06 14.02856 100.07295 32784 ft 462 kts 105°
2026-04-23 14:06 14.01217 100.13650 32786 ft 461 kts 104°
2026-04-23 14:07 13.99571 100.20031 32789 ft 460 kts 104°
2026-04-23 14:07 13.97118 100.29539 32798 ft 461 kts 104°
2026-04-23 14:08 13.95473 100.35913 32802 ft 461 kts 104°
2026-04-23 14:08 13.93825 100.42295 32803 ft 460 kts 105°
2026-04-23 14:09 13.92178 100.48657 32802 ft 459 kts 105°
2026-04-23 14:09 13.90513 100.54970 32807 ft 459 kts 106°
2026-04-23 14:10 13.88371 100.61149 32809 ft 459 kts 112°
2026-04-23 14:10 13.85635 100.67072 32809 ft 459 kts 116°
2026-04-23 14:11 13.82745 100.72900 32808 ft 459 kts 116°
2026-04-23 14:11 13.79859 100.78725 32808 ft 458 kts 116°
2026-04-23 14:12 13.76981 100.84541 32811 ft 458 kts 116°
2026-04-23 14:12 13.74070 100.90402 32811 ft 458 kts 116°
2026-04-23 14:13 13.71178 100.96207 32814 ft 458 kts 116°
2026-04-23 14:13 13.68289 101.02016 32814 ft 457 kts 116°
2026-04-23 14:14 13.65402 101.07822 32814 ft 457 kts 116°
2026-04-23 14:14 13.62520 101.13616 32812 ft 456 kts 116°
2026-04-23 14:15 13.59648 101.19389 32815 ft 456 kts 116°
2026-04-23 14:15 13.56766 101.25181 32814 ft 456 kts 116°
2026-04-23 14:16 13.53860 101.31023 32818 ft 457 kts 116°
2026-04-23 14:16 13.50962 101.36832 32821 ft 457 kts 116°
2026-04-23 14:17 13.48057 101.42638 32828 ft 458 kts 116°
2026-04-23 14:17 13.45158 101.48442 32833 ft 457 kts 116°
2026-04-23 14:18 13.42263 101.54243 32837 ft 457 kts 116°
2026-04-23 14:18 13.39383 101.60025 32840 ft 456 kts 116°
2026-04-23 14:19 13.36556 101.65873 32842 ft 456 kts 116°
2026-04-23 14:19 13.33754 101.71695 32847 ft 456 kts 116°
2026-04-23 14:20 13.30950 101.77512 32852 ft 457 kts 116°
2026-04-23 14:20 13.28122 101.83373 32856 ft 457 kts 115°
2026-04-23 14:21 13.25306 101.89208 32858 ft 457 kts 115°
2026-04-23 14:21 13.22490 101.95032 32851 ft 457 kts 115°
2026-04-23 14:22 13.19659 102.00861 32846 ft 457 kts 116°
2026-04-23 14:22 13.16841 102.06667 32853 ft 456 kts 116°
2026-04-23 14:23 13.14024 102.12479 32858 ft 456 kts 116°
2026-04-23 14:23 13.11208 102.18285 32858 ft 454 kts 115°
2026-04-23 14:24 13.08417 102.24037 32864 ft 450 kts 115°
2026-04-23 14:24 13.05619 102.29803 32869 ft 455 kts 115°
2026-04-23 14:25 13.02803 102.35608 32870 ft 456 kts 115°
2026-04-23 14:25 12.99989 102.41407 32858 ft 455 kts 115°
2026-04-23 14:26 12.97159 102.47189 32857 ft 454 kts 117°
2026-04-23 14:26 12.93915 102.52737 32856 ft 455 kts 123°
2026-04-23 14:27 12.90358 102.58091 32859 ft 455 kts 123°
2026-04-23 14:27 12.86793 102.63444 32850 ft 454 kts 123°
2026-04-23 14:28 12.83219 102.68816 32848 ft 455 kts 123°
2026-04-23 14:28 12.79658 102.74172 32845 ft 455 kts 123°
2026-04-23 14:29 12.76102 102.79519 32851 ft 455 kts 123°
2026-04-23 14:29 12.72545 102.84864 32858 ft 454 kts 123°
2026-04-23 14:30 12.68989 102.90202 32870 ft 454 kts 123°
2026-04-23 14:30 12.65437 102.95534 32896 ft 453 kts 123°
2026-04-23 14:31 12.61887 103.00856 32921 ft 453 kts 123°
2026-04-23 14:31 12.58338 103.06177 32932 ft 453 kts 123°
2026-04-23 14:32 12.54785 103.11504 32946 ft 453 kts 123°
2026-04-23 14:32 12.51233 103.16824 32945 ft 453 kts 123°
2026-04-23 14:33 12.47680 103.22141 32929 ft 453 kts 123°
2026-04-23 14:33 12.44125 103.27456 32917 ft 453 kts 123°
2026-04-23 14:34 12.40568 103.32773 32914 ft 453 kts 123°
2026-04-23 14:34 12.37012 103.38088 32896 ft 452 kts 123°
2026-04-23 14:35 12.33456 103.43398 32891 ft 453 kts 123°
2026-04-23 14:35 12.29899 103.48707 32885 ft 453 kts 123°
2026-04-23 14:36 12.26337 103.54018 32885 ft 453 kts 123°
2026-04-23 14:36 12.22775 103.59328 32880 ft 453 kts 123°
2026-04-23 14:37 12.19212 103.64636 32888 ft 453 kts 123°
2026-04-23 14:37 12.15660 103.69926 32891 ft 453 kts 123°
2026-04-23 14:38 12.12096 103.75233 32888 ft 454 kts 123°
2026-04-23 14:38 12.08528 103.80541 32889 ft 454 kts 123°
2026-04-23 14:39 12.04958 103.85847 32883 ft 454 kts 123°
2026-04-23 14:39 12.01386 103.91152 32879 ft 454 kts 123°
2026-04-23 14:40 11.97816 103.96454 32873 ft 454 kts 123°
2026-04-23 14:40 11.94245 104.01754 32872 ft 453 kts 123°
2026-04-23 14:41 11.90674 104.07054 32885 ft 453 kts 123°
2026-04-23 14:41 11.87089 104.12371 32903 ft 454 kts 123°
2026-04-23 14:42 11.83518 104.17662 32915 ft 453 kts 123°
2026-04-23 14:42 11.79943 104.22955 32921 ft 453 kts 123°
2026-04-23 14:43 11.76369 104.28245 32915 ft 453 kts 123°
2026-04-23 14:43 11.72795 104.33532 32895 ft 453 kts 123°
2026-04-23 14:44 11.69230 104.38806 32881 ft 453 kts 123°
2026-04-23 14:44 11.65651 104.44099 32869 ft 454 kts 123°
2026-04-23 14:45 11.62053 104.49416 32857 ft 454 kts 123°
2026-04-23 14:45 11.58478 104.54694 32851 ft 453 kts 123°
2026-04-23 14:46 11.54895 104.59983 32845 ft 453 kts 123°
2026-04-23 14:46 11.51304 104.65282 32843 ft 454 kts 123°
2026-04-23 14:47 11.47716 104.70578 32844 ft 453 kts 123°
2026-04-23 14:47 11.44149 104.75845 32841 ft 454 kts 123°
2026-04-23 14:48 11.40552 104.81147 32837 ft 454 kts 124°
2026-04-23 14:48 11.37218 104.86591 32832 ft 454 kts 118°
2026-04-23 14:49 11.34520 104.92396 32830 ft 453 kts 111°
2026-04-23 14:49 11.32518 104.98459 32828 ft 452 kts 105°
2026-04-23 14:50 11.31086 105.04688 32827 ft 452 kts 102°
2026-04-23 14:50 11.29727 105.10923 32835 ft 453 kts 102°
2026-04-23 14:51 11.28357 105.17172 32842 ft 453 kts 102°
2026-04-23 14:51 11.26983 105.23408 32844 ft 453 kts 102°
2026-04-23 14:52 11.25604 105.29659 32848 ft 453 kts 102°
2026-04-23 14:52 11.24225 105.35902 32851 ft 452 kts 102°
2026-04-23 14:53 11.22847 105.42132 32852 ft 452 kts 102°
2026-04-23 14:53 11.21465 105.48371 32693 ft 454 kts 102°
2026-04-23 14:54 11.20767 105.51524 32426 ft 452 kts 102°
2026-04-23 14:54 11.20082 105.54616 32175 ft 450 kts 102°
2026-04-23 14:54 11.19398 105.57702 31924 ft 448 kts 102°
2026-04-23 14:54 11.18710 105.60805 31669 ft 446 kts 102°
2026-04-23 14:55 11.18028 105.63879 31419 ft 446 kts 102°
2026-04-23 14:55 11.17348 105.66957 31169 ft 447 kts 103°
2026-04-23 14:55 11.16665 105.70035 30916 ft 447 kts 103°
2026-04-23 14:55 11.15980 105.73117 30666 ft 448 kts 103°
2026-04-23 14:56 11.15292 105.76205 30417 ft 448 kts 103°
2026-04-23 14:56 11.14600 105.79299 30163 ft 450 kts 103°
2026-04-23 14:56 11.14325 105.80532 30062 ft 450 kts 103°
2026-04-23 14:56 11.13759 105.83070 29858 ft 451 kts 103°
2026-04-23 14:57 11.13072 105.86155 29612 ft 452 kts 103°
2026-04-23 14:57 11.12371 105.89296 29360 ft 454 kts 103°
2026-04-23 14:57 11.11647 105.92423 29108 ft 455 kts 105°
2026-04-23 14:57 11.10780 105.95501 28856 ft 452 kts 108°
2026-04-23 14:58 11.09757 105.98513 28593 ft 451 kts 111°
2026-04-23 14:58 11.08615 106.01472 28127 ft 449 kts 112°
2026-04-23 14:58 11.07462 106.04401 27568 ft 446 kts 112°
2026-04-23 14:58 11.06314 106.07313 26949 ft 444 kts 112°
2026-04-23 14:59 11.05168 106.10220 26282 ft 444 kts 112°
2026-04-23 14:59 11.04021 106.13130 25593 ft 444 kts 112°
2026-04-23 14:59 11.02797 106.16007 24881 ft 445 kts 118°
2026-04-23 14:59 11.01151 106.18659 24161 ft 444 kts 127°
2026-04-23 15:00 10.99096 106.20998 23442 ft 444 kts 136°
2026-04-23 15:00 10.96826 106.23120 22708 ft 444 kts 138°
2026-04-23 15:00 10.94533 106.25198 21978 ft 440 kts 139°
2026-04-23 15:00 10.92268 106.27248 21263 ft 434 kts 139°
2026-04-23 15:01 10.90038 106.29275 20554 ft 428 kts 138°
2026-04-23 15:01 10.87834 106.31286 19838 ft 422 kts 138°
2026-04-23 15:01 10.85675 106.33263 19128 ft 417 kts 138°
2026-04-23 15:01 10.83538 106.35223 18417 ft 412 kts 138°
2026-04-23 15:02 10.82113 106.36530 17946 ft 412 kts 139°
2026-04-23 15:02 10.79285 106.39127 17006 ft 412 kts 139°
2026-04-23 15:02 10.77171 106.41064 16300 ft 406 kts 138°
2026-04-23 15:02 10.75097 106.42962 15610 ft 397 kts 138°
2026-04-23 15:03 10.73073 106.44813 14936 ft 387 kts 137°
2026-04-23 15:03 10.71109 106.46611 14453 ft 372 kts 137°
2026-04-23 15:03 10.69204 106.48357 14019 ft 367 kts 137°
2026-04-23 15:03 10.67317 106.50085 13629 ft 362 kts 137°
2026-04-23 15:04 10.65473 106.51773 13234 ft 351 kts 136°
2026-04-23 15:04 10.63688 106.53406 12887 ft 338 kts 136°
2026-04-23 15:04 10.61977 106.54971 12619 ft 323 kts 136°
2026-04-23 15:04 10.60331 106.56479 12291 ft 314 kts 136°
2026-04-23 15:05 10.58818 106.58041 11947 ft 306 kts 127°
2026-04-23 15:05 10.57678 106.59802 11709 ft 293 kts 115°
2026-04-23 15:05 10.56870 106.61646 11607 ft 279 kts 110°
2026-04-23 15:05 10.56165 106.63451 11466 ft 272 kts 110°
2026-04-23 15:06 10.55471 106.65243 11322 ft 272 kts 110°
2026-04-23 15:06 10.54771 106.67027 11172 ft 271 kts 110°
2026-04-23 15:06 10.54068 106.68803 11025 ft 270 kts 110°
2026-04-23 15:06 10.53364 106.70574 10727 ft 272 kts 110°
2026-04-23 15:07 10.52652 106.72363 10280 ft 275 kts 110°
2026-04-23 15:07 10.51936 106.74159 9844 ft 274 kts 110°
2026-04-23 15:07 10.51209 106.75987 9516 ft 282 kts 110°
2026-04-23 15:07 10.50473 106.77832 9372 ft 278 kts 110°
2026-04-23 15:08 10.49751 106.79640 9067 ft 274 kts 110°
2026-04-23 15:08 10.49040 106.81423 8755 ft 271 kts 110°
2026-04-23 15:08 10.48338 106.83184 8443 ft 268 kts 109°
2026-04-23 15:09 10.48117 106.86794 7817 ft 257 kts 75°
2026-04-23 15:09 10.48565 106.88539 7509 ft 255 kts 74°
2026-04-23 15:09 10.49019 106.90267 7198 ft 253 kts 74°
2026-04-23 15:09 10.49462 106.91993 6988 ft 252 kts 74°
2026-04-23 15:10 10.49750 106.93137 6974 ft 244 kts 74°
2026-04-23 15:10 10.50286 106.95282 6963 ft 232 kts 74°
2026-04-23 15:10 10.50694 106.96867 6969 ft 231 kts 70°
2026-04-23 15:10 10.51553 106.98211 6833 ft 229 kts 34°
2026-04-23 15:11 10.53046 106.98720 6727 ft 230 kts
2026-04-23 15:11 10.54629 106.98451 6628 ft 231 kts 345°
2026-04-23 15:11 10.56180 106.98006 6513 ft 230 kts 345°
2026-04-23 15:11 10.57731 106.97586 6394 ft 229 kts 346°
2026-04-23 15:12 10.59283 106.97186 6278 ft 229 kts 346°
2026-04-23 15:12 10.60836 106.96799 6156 ft 229 kts 346°
2026-04-23 15:12 10.62388 106.96416 6036 ft 228 kts 347°
2026-04-23 15:12 10.63939 106.96039 5915 ft 228 kts 347°
2026-04-23 15:13 10.65493 106.95663 5797 ft 229 kts 347°
2026-04-23 15:13 10.67047 106.95289 5679 ft 229 kts 347°
2026-04-23 15:13 10.68604 106.94915 5565 ft 227 kts 347°
2026-04-23 15:13 10.70124 106.94549 5412 ft 217 kts 347°
2026-04-23 15:14 10.71539 106.94208 5351 ft 201 kts 347°
2026-04-23 15:14 10.72883 106.93885 5224 ft 197 kts 347°
2026-04-23 15:14 10.74227 106.93563 5106 ft 198 kts 347°
2026-04-23 15:14 10.75577 106.93240 4986 ft 199 kts 347°
2026-04-23 15:15 10.76932 106.92915 4868 ft 199 kts 347°
2026-04-23 15:15 10.78291 106.92589 4750 ft 200 kts 347°
2026-04-23 15:15 10.79654 106.92262 4579 ft 201 kts 347°
2026-04-23 15:15 10.81020 106.91934 4515 ft 202 kts 347°
2026-04-23 15:16 10.82394 106.91605 4416 ft 202 kts 347°
2026-04-23 15:16 10.83767 106.91275 4301 ft 202 kts 347°
2026-04-23 15:16 10.85141 106.90946 4172 ft 202 kts 347°
2026-04-23 15:16 10.86502 106.90559 3989 ft 203 kts 335°
2026-04-23 15:17 10.87467 106.89560 3672 ft 201 kts 290°
2026-04-23 15:17 10.87743 106.88174 3370 ft 201 kts 273°
2026-04-23 15:17 10.87852 106.86763 3012 ft 200 kts 271°
2026-04-23 15:17 10.87978 106.85354 2647 ft 200 kts 272°
2026-04-23 15:18 10.88148 106.83953 2330 ft 198 kts 274°
2026-04-23 15:18 10.88341 106.82571 2090 ft 197 kts 272°
2026-04-23 15:18 10.88205 106.81226 2008 ft 190 kts 248°
2026-04-23 15:18 10.87734 106.79971 1999 ft 189 kts 242°
2026-04-23 15:19 10.87209 106.78738 1986 ft 189 kts 242°
2026-04-23 15:19 10.86736 106.77565 1983 ft 170 kts 243°
2026-04-23 15:19 10.86328 106.76502 1947 ft 155 kts 244°
2026-04-23 15:19 10.85943 106.75483 1816 ft 154 kts 244°
2026-04-23 15:20 10.85687 106.74803 1685 ft 153 kts 243°
2026-04-23 15:20 10.85182 106.73464 1430 ft 152 kts 244°
2026-04-23 15:20 10.84804 106.72458 1242 ft 152 kts 244°
2026-04-23 15:20 10.84427 106.71458 1051 ft 151 kts 244°
2026-04-23 15:21 10.84051 106.70462 862 ft 151 kts 244°
2026-04-23 15:21 10.83682 106.69464 658 ft 150 kts 245°
2026-04-23 15:21 10.83320 106.68477 467 ft 148 kts 246°
2026-04-23 15:21 10.82952 106.67498 293 ft 148 kts 245°
2026-04-23 15:22 10.82575 106.66528 101 ft 147 kts 245°
2026-04-23 15:22 10.82211 106.65599 30 ft 124 kts 249°
2026-04-23 15:22 10.81966 106.64944 34 ft 74 kts 250°
2026-04-23 15:22 10.81839 106.64604 31 ft 35 kts 248°
2026-04-23 15:23 10.81746 106.64425 28 ft 22 kts 231°
2026-04-23 15:23 10.81675 106.64358 27 ft 8 kts 217°
2026-04-23 15:23 10.81627 106.64322 27 ft 8 kts 217°
2026-04-23 15:23 10.81570 106.64294 26 ft 9 kts 183°
2026-04-23 15:24 10.81507 106.64307 27 ft 9 kts 162°
2026-04-23 15:24 10.81450 106.64326 28 ft 8 kts 161°
2026-04-23 15:24 10.81400 106.64344 29 ft 7 kts 160°
2026-04-23 15:24 10.81348 106.64364 29 ft 8 kts 159°
2026-04-23 15:25 10.81289 106.64387 29 ft 8 kts 158°
2026-04-23 15:25 10.81252 106.64436 28 ft 10 kts 93°
2026-04-23 15:25 10.81260 106.64479 26 ft 7 kts 69°
2026-04-23 15:25 10.81289 106.64555 25 ft 9 kts 69°
2026-04-23 15:26 10.81315 106.64625 24 ft 11 kts 69°
2026-04-23 15:26 10.81342 106.64696 24 ft 10 kts 69°
2026-04-23 15:26 10.81369 106.64765 24 ft 10 kts 69°
2026-04-23 15:26 10.81396 106.64836 24 ft 11 kts 69°
2026-04-23 15:27 10.81426 106.64915 25 ft 12 kts 69°
2026-04-23 15:27 10.81458 106.64998 26 ft 13 kts 69°
2026-04-23 15:27 10.81492 106.65087 26 ft 14 kts 70°
2026-04-23 15:27 10.81527 106.65183 27 ft 14 kts 69°
2026-04-23 15:28 10.81564 106.65283 27 ft 15 kts 69°
2026-04-23 15:28 10.81601 106.65380 28 ft 14 kts 69°
2026-04-23 15:28 10.81636 106.65472 30 ft 13 kts 69°
2026-04-23 15:28 10.81668 106.65556 32 ft 12 kts 69°
2026-04-23 15:29 10.81701 106.65644 32 ft 14 kts 69°
2026-04-23 15:29 10.81726 106.65723 30 ft 9 kts 87°
2026-04-23 15:29 10.81709 106.65785 31 ft 9 kts 114°
2026-04-23 15:29 10.81683 106.65845 31 ft 8 kts 111°
2026-04-23 15:30 10.81685 106.65904 31 ft 8 kts 72°
2026-04-23 15:30 10.81708 106.65966 31 ft 10 kts 69°
2026-04-23 15:30 10.81735 106.66038 30 ft 11 kts 69°
2026-04-23 15:30 10.81765 106.66117 29 ft 12 kts 69°
2026-04-23 15:31 10.81797 106.66202 25 ft 14 kts 69°
2026-04-23 15:31 10.81826 106.66278 23 ft 9 kts 69°
2026-04-23 15:31 10.81848 106.66338 24 ft 8 kts 69°
2026-04-23 15:31 10.81865 106.66384 25 ft 4 kts 76°
2026-04-23 15:32 10.81858 106.66412 25 ft 3 kts 133°
2026-04-23 15:32 10.81840 106.66418 26 ft 1 kts 171°
2026-04-23 15:32 10.81832 106.66419 26 ft 1 kts 170°
2026-04-23 15:32 10.81820 106.66422 27 ft 2 kts 159°
2026-04-23 15:33 10.81808 106.66428 27 ft 1 kts 159°
2026-04-23 15:33 10.81801 106.66430 27 ft 1 kts 159°
2026-04-23 15:33 10.81793 106.66433 28 ft 0 kts 159°
2026-04-23 15:33 10.81790 106.66434 28 ft 0 kts 159°
2026-04-23 15:34 10.81784 106.66437 28 ft 0 kts 159°
2026-04-23 15:34 10.81781 106.66438 28 ft 0 kts 159°
2026-04-23 15:34 10.81780 106.66438 28 ft 0 kts 159°
2026-04-23 15:34 10.81776 106.66440 29 ft 0 kts 159°